Seattle, WA
on Saturday, January 5, 2013

Saturday
Previous Day Next Day
Daily Summary
 ActualAverageRecord
Temperature
Mean Temperature °F 41°F  
Max Temperature 44°F 46°F 55°F (2006)
Min Temperature 40°F 36°F 15°F (1982)
Degree Days
Heating Degree Days 23 24  
Month to date heating degree days 132 120  
Since 1 July heating degree days 1883 2058  
Cooling Degree Days 0 0  
Month to date cooling degree days 0 0  
Year to date cooling degree days 0 0  
Moisture
Dew Point 34°F   
Average Humidity 74    
Maximum Humidity 86    
Minimum Humidity 62    
Precipitation
Precipitation 0.12 in 0.18 in 1.33 in (2006)
Month to date precipitation 0.38 0.92  
Year to date precipitation 0.38 0.92  
Snow
Snow 0.00 in in 2.00 in (1959)
Month to date snowfall 0.0  
Since 1 July snowfall 0.6  
Snow Depth 0.00 in   
Wind
Wind Speed 7 mph   
Max Wind Speed 21 mph   
Max Gust Speed 25 mph   
Visibility 9 miles   
Events Rain   

Key: T is trace of precipitation, MM is missing value
Source: NWS Daily Summary
Time(PST)TemperatureDew PointHumidity Pressure Visibility Wind DirectionWind SpeedGust SpeedPrecipitationEvents Conditions
12:53 AM 44.1°F 33.1°F 65% 30.18 in 10.0 miles ESE 3.5 mph - N/A   Overcast
1:53 AM 42.1°F 34.0°F 73% 30.19 in 10.0 miles Calm Calm - N/A   Overcast
2:53 AM 39.9°F 35.1°F 83% 30.19 in 10.0 miles SE 4.6 mph - N/A   Overcast
3:53 AM 39.9°F 35.1°F 83% 30.19 in 10.0 miles SE 4.6 mph - N/A   Overcast
4:53 AM 42.1°F 33.1°F 70% 30.19 in 10.0 miles SSE 5.8 mph - N/A   Overcast
5:53 AM 42.1°F 33.1°F 70% 30.19 in 10.0 miles SE 5.8 mph - N/A   Overcast
6:53 AM 42.1°F 30.9°F 65% 30.20 in 10.0 miles SSW 3.5 mph - N/A   Overcast
7:53 AM 43.0°F 30.0°F 60% 30.20 in 10.0 miles ESE 10.4 mph - N/A   Mostly Cloudy
8:53 AM 43.0°F 30.9°F 62% 30.22 in 10.0 miles Variable 4.6 mph - N/A   Overcast
9:53 AM 43.0°F 36.0°F 76% 30.23 in 10.0 miles SSE 3.5 mph - 0.00 in Rain Light Rain
10:53 AM 43.0°F 30.9°F 62% 30.22 in 10.0 miles ESE 11.5 mph - 0.00 in   Overcast
11:53 AM 43.0°F 33.1°F 68% 30.20 in 10.0 miles ESE 15.0 mph - N/A   Mostly Cloudy
12:53 PM 43.0°F 35.1°F 74% 30.19 in 10.0 miles ESE 11.5 mph - N/A   Mostly Cloudy
1:53 PM 43.0°F 34.0°F 71% 30.16 in 10.0 miles ESE 17.3 mph - N/A   Mostly Cloudy
2:53 PM 43.0°F 33.1°F 68% 30.17 in 10.0 miles WSW 4.6 mph - N/A   Mostly Cloudy
3:53 PM 43.0°F 33.1°F 68% 30.16 in 10.0 miles ESE 8.1 mph - N/A   Overcast
4:53 PM 43.0°F 30.9°F 62% 30.14 in 10.0 miles SE 5.8 mph - N/A   Mostly Cloudy
5:53 PM 42.1°F 32.0°F 67% 30.15 in 10.0 miles SE 5.8 mph - N/A   Mostly Cloudy
6:53 PM 41.0°F 34.0°F 76% 30.15 in 10.0 miles SE 5.8 mph - N/A   Mostly Cloudy
7:53 PM 41.0°F 34.0°F 76% 30.14 in 10.0 miles Calm Calm - 0.00 in   Overcast
8:09 PM 41.0°F 35.6°F 81% 30.12 in 10.0 miles Calm Calm - 0.00 in Rain Light Rain
8:18 PM 41.0°F 35.6°F 81% 30.12 in 10.0 miles Calm Calm - 0.00 in Rain Light Rain
8:53 PM 42.1°F 37.9°F 85% 30.16 in 5.0 miles SW 6.9 mph - 0.01 in Rain Light Rain
9:02 PM 41.0°F 37.4°F 87% 30.13 in 4.0 miles SW 6.9 mph - 0.01 in Rain Light Rain
9:53 PM 41.0°F 37.9°F 89% 30.16 in 4.0 miles SSW 5.8 mph - 0.05 in Rain Light Rain
10:53 PM 41.0°F 37.9°F 89% 30.17 in 7.0 miles SSW 11.5 mph 16.1 mph 0.06 in   Overcast
11:08 PM 42.8°F 37.4°F 81% 30.14 in 10.0 miles SSW 13.8 mph - N/A   Overcast
11:43 PM 41.0°F 37.4°F 87% 30.15 in 3.0 miles South 9.2 mph - 0.00 in   Overcast
11:53 PM 39.9°F 37.9°F 93% 30.18 in 3.0 miles South 9.2 mph - 0.00 in Rain Light Rain
Moon Phase
Jan. 05 Jan. 11 Jan. 18 Jan. 26 Feb. 03
Sunrise:07:56 AM (PST) Moon Rise:12:54 AM (PST)1/5
Sunset:04:33 PM (PST) Moon Set:11:39 AM (PST)1/5

Copyright © 2014 The Weather Underground, Inc.